DW2342 Weather Reports


time (UTC)temp
C
wind
direction
speed
KPH
gust
KPH
rain 1hr
cm
rain 24hr
cm
rain mn
cm
humidity
%
barometer
mb
20260503050027 8 350 3.2 9.7 0.08 0.33 0.33 90 1009.8
20260503044523 8 22 4.8 9.7 0.08 0.33 0.33 90 1009.8
20260503043036 8 360 3.2 9.7 0.08 0.30 0.30 90 1009.9
20260503041523 8 346 3.2 9.7 0.08 0.28 0.28 90 1010.0
20260503040019 8 344 3.2 8.0 0.10 0.25 0.25 90 1010.1
20260503034517 8 18 3.2 8.0 0.10 0.23 0.23 90 1010.2
20260503033020 8 355 4.8 9.7 0.13 0.23 0.23 89 1010.4
20260503031513 8 360 4.8 8.0 0.13 0.20 0.20 89 1010.5
20260503030011 8 9 3.2 6.4 0.08 0.15 0.15 89 1010.4
20260503024521 8 360 3.2 6.4 0.08 0.15 0.15 89 1010.5
20260503023008 8 343 1.6 8.0 0.05 0.10 0.10 88 1010.5
20260503021522 8 360 3.2 8.0 0.05 0.08 0.08 88 1010.5
20260503020005 8 355 4.8 8.0 0.08 0.08 0.08 87 1010.6
20260503014503 9 5 3.2 6.4 0.05 0.05 0.05 86 1010.8
20260503013100 9 346 3.2 6.4 0.05 0.05 0.05 86 1010.8
20260503011604 9 360 1.6 6.4 0.03 0.03 0.03 85 1010.9
20260503010104 10 96 1.6 3.2 0.00 0.00 0.00 85 1010.9
20260503004607 9 30 0.0 6.4 0.00 0.00 0.00 85 1011.0
20260503003109 9 40 3.2 6.4 0.00 0.00 0.00 84 1011.0
20260503001612 10 42 1.6 4.8 0.00 0.00 0.00 84 1011.0
20260503000051 10 42 1.6 4.8 0.00 0.00 0.00 83 1011.1
20260502234549 10 42 1.6 3.2 0.00 0.00 0.00 83 1011.2
20260502233048 10 42 0.0 3.2 0.00 0.00 0.00 82 1011.3
20260502231547 10 42 0.0 3.2 0.00 0.00 0.00 82 1011.3
20260502230046 10 42 0.0 3.2 0.00 0.00 0.00 82 1011.5
20260502224543 10 42 1.6 6.4 0.00 0.00 0.00 81 1011.5
20260502223043 10 68 3.2 6.4 0.00 0.00 0.00 82 1011.6
20260502221541 10 72 1.6 4.8 0.00 0.00 0.00 81 1011.8
20260502220040 10 85 3.2 9.7 0.00 0.00 0.00 81 1011.9
20260502214538 10 74 1.6 6.4 0.00 0.00 0.00 84 1012.0
20260502213052 9 355 0.0 4.8 0.00 0.00 0.00 84 1012.1
20260502211539 9 360 0.0 4.8 0.00 0.00 0.00 83 1012.1
20260502210039 10 360 3.2 6.4 0.00 0.00 0.00 82 1012.2
20260502204537 10 355 4.8 6.4 0.00 0.00 0.00 81 1012.4
20260502203039 10 355 3.2 6.4 0.00 0.00 0.00 81 1012.4
20260502201535 10 17 3.2 6.4 0.00 0.00 0.00 82 1012.3
20260502200054 10 17 4.8 8.0 0.00 0.00 0.00 81 1012.3
20260502194538 10 24 4.8 8.0 0.00 0.03 0.00 81 1012.3
20260502193033 11 13 4.8 9.7 0.00 0.03 0.00 78 1012.3
20260502191532 12 240 0.0 1.6 0.00 0.03 0.00 77 1012.3
20260502190032 12 240 0.0 1.6 0.00 0.03 0.00 76 1012.2
20260502184531 12 240 0.0 1.6 0.00 0.05 0.00 75 1012.3
20260502183037 12 240 0.0 1.6 0.00 0.05 0.00 75 1012.3
20260502181530 12 240 1.6 6.4 0.00 0.05 0.00 74 1012.3
20260502163024 13 192 1.6 9.7 0.00 0.10 0.00 70 1012.6
20260502161522 13 206 3.2 11.3 0.00 0.10 0.00 73 1012.8
20260502151515 14 175 6.4 17.7 0.00 0.10 0.00 72 1013.4
20260502130105 12 207 11.3 20.9 0.00 0.15 0.00 79 1014.7
20260502123052 12 168 9.7 22.5 0.00 0.15 0.00 84 1014.7
20260502121558 12 166 6.4 14.5 0.00 0.15 0.00 89 1014.7
20260502114541 10 214 6.4 12.9 0.00 0.15 0.00 91 1015.0
20260502113051 10 190 6.4 16.1 0.00 0.15 0.00 92 1015.0
20260502111543 10 200 9.7 17.7 0.00 0.15 0.00 92 1015.1
20260502110037 10 209 8.0 16.1 0.00 0.15 0.00 92 1015.2
20260502104534 10 211 6.4 12.9 0.00 0.15 0.00 92 1015.2
20260502103057 9 202 9.7 14.5 0.00 0.15 0.00 92 1015.2
20260502101546 9 203 6.4 11.3 0.00 0.15 0.00 92 1015.3
20260502091528 9 209 8.0 16.1 0.00 0.15 0.00 92 1015.3
20260502071519 9 195 8.0 11.3 0.00 0.15 0.00 91 1015.0
20260502070016 9 204 9.7 16.1 0.00 0.15 0.00 91 1014.9
20260502064513 9 202 9.7 14.5 0.00 0.15 0.00 91 1014.8
20260502063015 9 212 6.4 14.5 0.00 0.15 0.00 92 1014.8
20260502061512 9 212 8.0 12.9 0.00 0.15 0.00 91 1014.8
20260502060011 9 198 9.7 17.7 0.00 0.15 0.00 91 1014.9
20260502054511 9 209 6.4 19.3 0.00 0.15 0.00 91 1014.9
20260502053007 9 215 8.0 17.7 0.00 0.15 0.00 91 1014.9
20260502051506 9 200 9.7 17.7 0.00 0.15 0.00 91 1015.0